Regional Weather Roundup
Issued by NWS

Home | Current Version | Previous Version | Text Only | Print | Product List | Glossary Off
Versions: 1 2 3 4 5 6 7 8 9 10 11 12 13 14 15 16 17 18 19 20 21 22 23 24 25 26 27 28 29 30 31 32 33 34 35 36 37 38 39 40 41 42 43 44 45 46 47 48 49 50

000
ASUS43 KLSX 281507
RWRMO

WEATHER SUMMARY FOR MISSOURI
NATIONAL WEATHER SERVICE SPRINGFIELD MO
1000 AM CDT THU MAY 28 2015

NOTE: "FAIR" INDICATES FEW OR NO CLOUDS BELOW 12,000 FEET WITH NO
       SIGNIFICANT WEATHER AND/OR OBSTRUCTIONS TO VISIBILITY.
       CURRENT SKY AND/OR WEATHER CONDITIONS ARE NOT AVAILABLE FOR
       CHILLICOTHE AND FARMINGTON.

MOZ001>031-035>038-043-044-053-054-281600-
...NORTHERN AND WESTERN MISSOURI...

CITY           SKY/WX    TMP DP  RH WIND       PRES   REMARKS
KANSAS CTY INT CLOUDY    66  64  93 E12       30.07F
KANSAS C DTWN  CLOUDY    67  62  84 E8        30.07S
LEE`S SUMMIT   CLOUDY    66  62  87 NE7       30.09S
ST JOSEPH      CLOUDY    66  64  93 E7        30.06F
CHILLICOTHE      N/A     65  61  87 W6        30.15R
KIRKSVILLE     CLOUDY    70  62  76 SE10      30.14F

$$
MOZ066>068-077>081-088>096-101>105-281600-
...SOUTHWEST MISSOURI...

CITY           SKY/WX    TMP DP  RH WIND       PRES   REMARKS
SPRINGFIELD    CLOUDY    73  67  81 S10       30.12R
JOPLIN         CLOUDY    74  67  78 SE5       30.09S

$$
MOZ032>034-039>042-045>050-055>058-069>072-281600-
...CENTRAL MISSOURI...

CITY           SKY/WX    TMP DP  RH WIND       PRES   REMARKS
COLUMBIA       PTSUNNY   72  62  71 SE8       30.12F
JEFFERSON CITY CLOUDY    74  64  71 E8        30.11F
ROLLA          MOSUNNY   72  68  87 SE8       30.12F
SEDALIA        MOSUNNY   73  65  75 S7        30.11F
WHITEMAN AFB   PTSUNNY   72  64  77 SE3       30.09F
WARRENSBURG    MOSUNNY   72  63  73 CALM      30.09F
OSAGE BEACH    CLOUDY    72  66  83 SE8       30.11F

$$
MOZ051-052-059>065-281600-
...EAST CENTRAL MISSOURI...

CITY           SKY/WX    TMP DP  RH WIND       PRES   REMARKS
ST LOUIS INTL  PTSUNNY   77  61  57 E12       30.14F
SPIRIT OF STL  PTSUNNY   74  68  81 SE12      30.13F
ST CHARLES     MOSUNNY   77  60  55 E14       30.13F

$$
MOZ072>076-082>087-097>100-106>115-281600-
...SOUTH CENTRAL AND SOUTHEAST MISSOURI...

CITY           SKY/WX    TMP DP  RH WIND       PRES   REMARKS
CAPE GIRARDEAU MOSUNNY   74  68  81 S7        30.15F
FARMINGTON     SUNNY     73  68  83 S7        30.19F
POPLAR BLUFF   CLOUDY    73  67  81 SE5       30.14F
WEST PLAINS    CLOUDY    69  67  93 S7        30.16S

$$


USA.gov is the U.S. government's official web portal to all federal, state and local government web resources and services.